Regional Weather Roundup
Issued by NWS Cleveland, OH

Home | Current Version | Previous Version | Graphics & Text | Print | Product List | Glossary On
Versions: 1 2 3 4 5 6 7 8 9 10 11 12 13 14 15 16 17 18 19 20 21 22 23 24 25 26 27 28 29 30 31 32 33 34 35 36 37 38 39 40 41 42 43 44 45 46 47 48 49 50
719
ASUS41 KCLE 291612
RWRCLE
OHIO REGIONAL WEATHER ROUNDUP
NATIONAL WEATHER SERVICE WILMINGTON, OH
1200 PM EDT THU SEP 29 2016

NOTE: "FAIR" INDICATES FEW OR NO CLOUDS BELOW 12,000 FEET WITH NO
SIGNIFICANT WEATHER AND/OR OBSTRUCTIONS TO VISIBILITY.

OHZ001>008-015>018-024>027-034-035-043-044-291700-
   NORTHWEST OHIO

CITY           SKY/WX    TMP DP  RH WIND       PRES   REMARKS
DEFIANCE       FAIR      65  54  67 E9        30.13R
FINDLAY        CLOUDY    62  55  77 E7        30.12R
TOLEDO EXPRESS CLOUDY    58  57  97 NE5       30.15R
TOLEDO EXEC    CLOUDY    62  57  83 NE5       30.16R
LIMA           FAIR      64  54  69 E8        30.10S
$$

OHZ009>014-019>023-028>033-038-089-291700-
   NORTHEAST OHIO

CITY           SKY/WX    TMP DP  RH WIND       PRES   REMARKS
CLE-HOPKINS    CLOUDY    68  59  73 E9        30.15R
CLE-LAKEFRONT  CLOUDY    67  58  72 E12       30.12S
CUY CO. ARPT   CLOUDY    64  61  88 E9        30.15R
LORAIN-ELYRIA  CLOUDY    59  55  87 NE5       30.14R
ASHTABULA      CLOUDY    63  58  83 E14       30.18R
AKRON-CANTON   PTSUNNY   64  57  78 E14       30.11S
WOOSTER        CLOUDY    63  59  87 N6        30.11F
MANSFIELD      CLOUDY    62  56  80 NE7       30.12R
YOUNGSTOWN     CLOUDY    61  56  83 E15G21    30.14S
$$

OHZ042-051>053-060>062-070>072-077>081-291700-
  SOUTHWEST OHIO

CITY           SKY/WX    TMP DP  RH WIND       PRES   REMARKS
CINC-COVINGTON CLOUDY    58  52  80 NE6       30.07S
CINC-LUNKEN    CLOUDY    59  55  87 E6        30.09R
HAMILTON       CLOUDY    59  53  80 E9        30.09S
DAYTON         PTSUNNY   62  52  69 NE9       30.09S
WRIGHT-PAT AFB MOSUNNY   63  53  71 E9        30.08S
DAYTON GENERAL CLOUDY    60  51  72 VRB7      30.08S
WILMINGTON     CLOUDY    57  53  86 NE6       30.08R
$$

OHZ036-037-039>041-045>050-054>059-063>069-073>076-082>088-291700-
  CENTRAL AND SOUTHEAST OHIO

CITY           SKY/WX    TMP DP  RH WIND       PRES   REMARKS
COLUMBUS       PTSUNNY   64  56  75 SE5       30.07F
OSU AIRPORT    PTSUNNY   64  56  75 E7        30.08S
BOLTON FIELD   CLOUDY    63  55  77 E6        30.08S
RICKENBACK AFB CLOUDY    62  57  83 NE3       30.07S
NEWARK         FAIR      66  55  67 VRB3      30.06F
MARION         FAIR      64  56  75 CALM      30.11S
LANCASTER      FAIR      65  55  70 CALM      30.07F
ZANESVILLE     PTSUNNY   62  57  83 NE6       30.06F
NEW PHILLY     CLOUDY    65  59  81 N5        30.09S
$$




USA.gov is the U.S. government's official web portal to all federal, state and local government web resources and services.